Year,Month,Day,Hour,Minute,Value (Times are PST for temperature in C)
2015,04,18,00,00,8.80
2015,04,18,00,01,8.70
2015,04,18,00,02,8.70
2015,04,18,00,03,8.70
2015,04,18,00,04,8.70
2015,04,18,00,05,8.70
2015,04,18,00,06,8.70
2015,04,18,00,07,8.70
2015,04,18,00,08,8.70
2015,04,18,00,09,8.70
2015,04,18,00,10,8.70
2015,04,18,00,11,8.60
2015,04,18,00,12,8.60
2015,04,18,00,13,8.60
2015,04,18,00,14,8.50
2015,04,18,00,15,8.50
2015,04,18,00,16,8.40
2015,04,18,00,17,8.40
2015,04,18,00,18,8.40
2015,04,18,00,19,8.40
2015,04,18,00,20,8.40
2015,04,18,00,21,8.40
2015,04,18,00,22,8.30
2015,04,18,00,23,8.30
2015,04,18,00,24,8.40
2015,04,18,00,25,8.30
2015,04,18,00,26,8.30
2015,04,18,00,27,8.30
2015,04,18,00,28,8.30
2015,04,18,00,29,8.30
2015,04,18,00,30,8.30
2015,04,18,00,31,8.30
2015,04,18,00,32,8.30
2015,04,18,00,33,8.20
2015,04,18,00,34,8.20
2015,04,18,00,35,8.20
2015,04,18,00,36,8.20
2015,04,18,00,37,8.20
2015,04,18,00,38,8.20
2015,04,18,00,39,8.20
2015,04,18,00,40,8.20
2015,04,18,00,41,8.10
2015,04,18,00,42,8.10
2015,04,18,00,43,8.20
2015,04,18,00,44,8.10
2015,04,18,00,45,8.10
2015,04,18,00,46,8.10
2015,04,18,00,47,8.10
2015,04,18,00,48,8.10
2015,04,18,00,49,8.10
2015,04,18,00,50,8.10
2015,04,18,00,51,8.10
2015,04,18,00,52,8.10
2015,04,18,00,53,8.00
2015,04,18,00,54,8.00
2015,04,18,00,55,8.00
2015,04,18,00,56,8.00
2015,04,18,00,57,8.00
2015,04,18,00,58,8.00
2015,04,18,00,59,8.00
2015,04,18,01,00,8.00
2015,04,18,01,01,8.00
2015,04,18,01,02,8.00
2015,04,18,01,03,7.90
2015,04,18,01,04,7.90
2015,04,18,01,05,7.90
2015,04,18,01,06,7.90
2015,04,18,01,07,7.90
2015,04,18,01,08,7.90
2015,04,18,01,09,7.90
2015,04,18,01,10,7.90
2015,04,18,01,11,7.90
2015,04,18,01,12,7.90
2015,04,18,01,13,7.90
2015,04,18,01,14,7.90
2015,04,18,01,15,7.90
2015,04,18,01,16,7.90
2015,04,18,01,17,7.90
2015,04,18,01,18,7.90
2015,04,18,01,19,7.90
2015,04,18,01,20,7.90
2015,04,18,01,21,7.90
2015,04,18,01,22,7.90
2015,04,18,01,23,7.90
2015,04,18,01,24,7.80
2015,04,18,01,25,7.80
2015,04,18,01,26,7.80
2015,04,18,01,27,7.80
2015,04,18,01,28,7.80
2015,04,18,01,29,7.70
2015,04,18,01,30,7.70
2015,04,18,01,31,7.70
2015,04,18,01,32,7.70
2015,04,18,01,33,7.70
2015,04,18,01,34,7.70
2015,04,18,01,35,7.70
2015,04,18,01,36,7.70
2015,04,18,01,37,7.70
2015,04,18,01,38,7.60
2015,04,18,01,39,7.60
2015,04,18,01,40,7.60
2015,04,18,01,41,7.60
2015,04,18,01,42,7.50
2015,04,18,01,43,7.50
2015,04,18,01,44,7.50
2015,04,18,01,45,7.50
2015,04,18,01,46,7.60
2015,04,18,01,47,7.60
2015,04,18,01,48,7.60
2015,04,18,01,49,7.60
2015,04,18,01,50,7.60
2015,04,18,01,51,7.50
2015,04,18,01,52,7.50
2015,04,18,01,53,7.50
2015,04,18,01,54,7.40
2015,04,18,01,55,7.40
2015,04,18,01,56,7.40
2015,04,18,01,57,7.40
2015,04,18,01,58,7.40
2015,04,18,01,59,7.40
2015,04,18,02,00,7.40
2015,04,18,02,01,7.40
2015,04,18,02,02,7.40
2015,04,18,02,03,7.40
2015,04,18,02,04,7.30
2015,04,18,02,05,7.30
2015,04,18,02,06,7.30
2015,04,18,02,07,7.30
2015,04,18,02,08,7.30
2015,04,18,02,09,7.20
2015,04,18,02,10,7.20
2015,04,18,02,11,7.20
2015,04,18,02,12,7.20
2015,04,18,02,13,7.10
2015,04,18,02,14,7.10
2015,04,18,02,15,7.10
2015,04,18,02,16,7.10
2015,04,18,02,17,7.10
2015,04,18,02,18,7.10
2015,04,18,02,19,7.00
2015,04,18,02,20,7.00
2015,04,18,02,21,7.00
2015,04,18,02,22,7.00
2015,04,18,02,23,6.90
2015,04,18,02,24,6.90
2015,04,18,02,25,6.90
2015,04,18,02,26,6.90
2015,04,18,02,27,6.90
2015,04,18,02,28,6.90
2015,04,18,02,29,6.80
2015,04,18,02,30,6.80
2015,04,18,02,31,6.80
2015,04,18,02,32,6.80
2015,04,18,02,33,6.80
2015,04,18,02,34,6.80
2015,04,18,02,35,6.80
2015,04,18,02,36,6.80
2015,04,18,02,37,6.70
2015,04,18,02,38,6.70
2015,04,18,02,39,6.70
2015,04,18,02,40,6.70
2015,04,18,02,41,6.60
2015,04,18,02,42,6.60
2015,04,18,02,43,6.60
2015,04,18,02,44,6.60
2015,04,18,02,45,6.60
2015,04,18,02,46,6.60
2015,04,18,02,47,6.60
2015,04,18,02,48,6.50
2015,04,18,02,49,6.50
2015,04,18,02,50,6.50
2015,04,18,02,51,6.50
2015,04,18,02,52,6.50
2015,04,18,02,53,6.50
2015,04,18,02,54,6.50
2015,04,18,02,55,6.50
2015,04,18,02,56,6.50
2015,04,18,02,57,6.50
2015,04,18,02,58,6.50
2015,04,18,02,59,6.50
2015,04,18,03,00,6.40
2015,04,18,03,01,6.40
2015,04,18,03,02,6.40
2015,04,18,03,03,6.40
2015,04,18,03,04,6.40
2015,04,18,03,05,6.40
2015,04,18,03,06,6.40
2015,04,18,03,07,6.40
2015,04,18,03,08,6.30
2015,04,18,03,09,6.30
2015,04,18,03,10,6.30
2015,04,18,03,11,6.30
2015,04,18,03,12,6.30
2015,04,18,03,13,6.30
2015,04,18,03,14,6.30
2015,04,18,03,15,6.30
2015,04,18,03,16,6.30
2015,04,18,03,17,6.30
2015,04,18,03,18,6.20
2015,04,18,03,19,6.20
2015,04,18,03,20,6.20
2015,04,18,03,21,6.20
2015,04,18,03,22,6.20
2015,04,18,03,23,6.20
2015,04,18,03,24,6.20
2015,04,18,03,25,6.20
2015,04,18,03,26,6.10
2015,04,18,03,27,6.10
2015,04,18,03,28,6.10
2015,04,18,03,29,6.10
2015,04,18,03,30,6.10
2015,04,18,03,31,6.10
2015,04,18,03,32,6.10
2015,04,18,03,33,6.10
2015,04,18,03,34,6.10
2015,04,18,03,35,6.10
2015,04,18,03,36,6.00
2015,04,18,03,37,6.10
2015,04,18,03,38,6.10
2015,04,18,03,39,6.10
2015,04,18,03,40,6.10
2015,04,18,03,41,6.10
2015,04,18,03,42,6.20
2015,04,18,03,43,6.20
2015,04,18,03,44,6.20
2015,04,18,03,45,6.20
2015,04,18,03,46,6.20
2015,04,18,03,47,6.20
2015,04,18,03,48,6.20
2015,04,18,03,49,6.20
2015,04,18,03,50,6.20
2015,04,18,03,51,6.20
2015,04,18,03,52,6.20
2015,04,18,03,53,6.20
2015,04,18,03,54,6.20
2015,04,18,03,55,6.20
2015,04,18,03,56,6.20
2015,04,18,03,57,6.20
2015,04,18,03,58,6.10
2015,04,18,03,59,6.10
2015,04,18,04,00,6.10
2015,04,18,04,01,6.10
2015,04,18,04,02,6.10
2015,04,18,04,03,6.00
2015,04,18,04,04,6.00
2015,04,18,04,05,5.90
2015,04,18,04,06,5.90
2015,04,18,04,07,5.90
2015,04,18,04,08,5.90
2015,04,18,04,09,5.90
2015,04,18,04,10,5.90
2015,04,18,04,11,5.90
2015,04,18,04,12,5.90
2015,04,18,04,13,5.90
2015,04,18,04,14,5.90
2015,04,18,04,15,5.90
2015,04,18,04,16,5.80
2015,04,18,04,17,5.80
2015,04,18,04,18,5.80
2015,04,18,04,19,5.80
2015,04,18,04,20,5.80
2015,04,18,04,21,5.80
2015,04,18,04,22,5.80
2015,04,18,04,23,5.80
2015,04,18,04,24,5.80
2015,04,18,04,25,5.70
2015,04,18,04,26,5.70
2015,04,18,04,27,5.70
2015,04,18,04,28,5.70
2015,04,18,04,29,5.70
2015,04,18,04,30,5.60
2015,04,18,04,31,5.60
2015,04,18,04,32,5.60
2015,04,18,04,33,5.60
2015,04,18,04,34,5.60
2015,04,18,04,35,5.60
2015,04,18,04,36,5.60
2015,04,18,04,37,5.60
2015,04,18,04,38,5.50
2015,04,18,04,39,5.50
2015,04,18,04,40,5.50
2015,04,18,04,41,5.50
2015,04,18,04,42,5.40
2015,04,18,04,43,5.40
2015,04,18,04,44,5.40
2015,04,18,04,45,5.40
2015,04,18,04,46,5.40
2015,04,18,04,47,5.40
2015,04,18,04,48,5.40
2015,04,18,04,49,5.30
2015,04,18,04,50,5.30
2015,04,18,04,51,5.30
2015,04,18,04,52,5.30
2015,04,18,04,53,5.20
2015,04,18,04,54,5.20
2015,04,18,04,55,5.20
2015,04,18,04,56,5.30
2015,04,18,04,57,5.30
2015,04,18,04,58,5.30
2015,04,18,04,59,5.30
2015,04,18,05,00,5.30
2015,04,18,05,01,5.30
2015,04,18,05,02,5.30
2015,04,18,05,03,5.30
2015,04,18,05,04,5.30
2015,04,18,05,05,5.30
2015,04,18,05,06,5.30
2015,04,18,05,07,5.30
2015,04,18,05,08,5.30
2015,04,18,05,09,5.20
2015,04,18,05,10,5.20
2015,04,18,05,11,5.20
2015,04,18,05,12,5.20
2015,04,18,05,13,5.20
2015,04,18,05,14,5.10
2015,04,18,05,15,5.10
2015,04,18,05,16,5.10
2015,04,18,05,17,5.10
2015,04,18,05,18,5.10
2015,04,18,05,19,5.10
2015,04,18,05,20,5.10
2015,04,18,05,21,5.10
2015,04,18,05,22,5.00
2015,04,18,05,23,5.00
2015,04,18,05,24,5.00
2015,04,18,05,25,5.00
2015,04,18,05,26,5.00
2015,04,18,05,27,4.90
2015,04,18,05,28,4.90
2015,04,18,05,29,4.90
2015,04,18,05,30,4.90
2015,04,18,05,31,4.90
2015,04,18,05,32,4.90
2015,04,18,05,33,4.90
2015,04,18,05,34,4.90
2015,04,18,05,35,4.90
2015,04,18,05,36,4.80
2015,04,18,05,37,4.80
2015,04,18,05,38,4.80
2015,04,18,05,39,4.80
2015,04,18,05,40,4.80
2015,04,18,05,41,4.80
2015,04,18,05,42,4.80
2015,04,18,05,43,4.90
2015,04,18,05,44,4.90
2015,04,18,05,45,4.90
2015,04,18,05,46,4.90
2015,04,18,05,47,4.90
2015,04,18,05,48,4.80
2015,04,18,05,49,4.80
2015,04,18,05,50,4.80
2015,04,18,05,51,4.80
2015,04,18,05,52,4.80
2015,04,18,05,53,4.80
2015,04,18,05,54,4.80
2015,04,18,05,55,4.70
2015,04,18,05,56,4.70
2015,04,18,05,57,4.70
2015,04,18,05,58,4.70
2015,04,18,05,59,4.70
2015,04,18,06,00,4.70
2015,04,18,06,01,4.70
2015,04,18,06,02,4.70
2015,04,18,06,03,4.60
2015,04,18,06,04,4.60
2015,04,18,06,05,4.60
2015,04,18,06,06,4.60
2015,04,18,06,07,4.60
2015,04,18,06,08,4.60
2015,04,18,06,09,4.60
2015,04,18,06,10,4.60
2015,04,18,06,11,4.60
2015,04,18,06,12,4.60
2015,04,18,06,13,4.50
2015,04,18,06,14,4.50
2015,04,18,06,15,4.50
2015,04,18,06,16,4.50
2015,04,18,06,17,4.40
2015,04,18,06,18,4.40
2015,04,18,06,19,4.40
2015,04,18,06,20,4.40
2015,04,18,06,21,4.40
2015,04,18,06,22,4.40
2015,04,18,06,23,4.40
2015,04,18,06,24,4.40
2015,04,18,06,25,4.40
2015,04,18,06,26,4.40
2015,04,18,06,27,4.40
2015,04,18,06,28,4.40
2015,04,18,06,29,4.40
2015,04,18,06,30,4.40
2015,04,18,06,31,4.30
2015,04,18,06,32,4.30
2015,04,18,06,33,4.30
2015,04,18,06,34,4.30
2015,04,18,06,35,4.30
2015,04,18,06,36,4.30
2015,04,18,06,37,4.30
2015,04,18,06,38,4.30
2015,04,18,06,39,4.20
2015,04,18,06,40,4.20
2015,04,18,06,41,4.20
2015,04,18,06,42,4.20
2015,04,18,06,43,4.20
2015,04,18,06,44,4.20
2015,04,18,06,45,4.20
2015,04,18,06,46,4.20
2015,04,18,06,47,4.20
2015,04,18,06,48,4.10
2015,04,18,06,49,4.10
2015,04,18,06,50,4.20
2015,04,18,06,51,4.20
2015,04,18,06,52,4.20
2015,04,18,06,53,4.20
2015,04,18,06,54,4.20
2015,04,18,06,55,4.20
2015,04,18,06,56,4.20
2015,04,18,06,57,4.20
2015,04,18,06,58,4.20
2015,04,18,06,59,4.20
2015,04,18,07,00,4.20
2015,04,18,07,01,4.20
2015,04,18,07,02,4.20
2015,04,18,07,03,4.30
2015,04,18,07,04,4.30
2015,04,18,07,05,4.30
2015,04,18,07,06,4.30
2015,04,18,07,07,4.30
2015,04,18,07,08,4.30
2015,04,18,07,09,4.30
2015,04,18,07,10,4.30
2015,04,18,07,11,4.30
2015,04,18,07,12,4.30
2015,04,18,07,13,4.30
2015,04,18,07,14,4.30
2015,04,18,07,15,4.30
2015,04,18,07,16,4.30
2015,04,18,07,17,4.40
2015,04,18,07,18,4.40
2015,04,18,07,19,4.40
2015,04,18,07,20,4.50
2015,04,18,07,21,4.60
2015,04,18,07,22,4.60
2015,04,18,07,23,4.70
2015,04,18,07,24,4.70
2015,04,18,07,25,4.70
2015,04,18,07,26,4.70
2015,04,18,07,27,4.80
2015,04,18,07,28,4.80
2015,04,18,07,29,4.80
2015,04,18,07,30,4.80
2015,04,18,07,31,4.90
2015,04,18,07,32,4.90
2015,04,18,07,33,4.90
2015,04,18,07,34,5.00
2015,04,18,07,35,5.00
2015,04,18,07,36,5.10
2015,04,18,07,37,5.20
2015,04,18,07,38,5.20
2015,04,18,07,39,5.30
2015,04,18,07,40,5.40
2015,04,18,07,41,5.50
2015,04,18,07,42,5.50
2015,04,18,07,43,5.60
2015,04,18,07,44,5.60
2015,04,18,07,45,5.60
2015,04,18,07,46,5.60
2015,04,18,07,47,5.60
2015,04,18,07,48,5.60
2015,04,18,07,49,5.70
2015,04,18,07,50,5.70
2015,04,18,07,51,5.70
2015,04,18,07,52,5.80
2015,04,18,07,53,5.80
2015,04,18,07,54,5.90
2015,04,18,07,55,6.00
2015,04,18,07,56,6.00
2015,04,18,07,57,6.10
2015,04,18,07,58,6.10
2015,04,18,07,59,6.20
2015,04,18,08,00,6.20
2015,04,18,08,01,6.20
2015,04,18,08,02,6.20
2015,04,18,08,03,6.20
2015,04,18,08,04,6.30
2015,04,18,08,05,6.30
2015,04,18,08,06,6.30
2015,04,18,08,07,6.30
2015,04,18,08,08,6.40
2015,04,18,08,09,6.40
2015,04,18,08,10,6.50
2015,04,18,08,11,6.60
2015,04,18,08,12,6.70
2015,04,18,08,13,6.70
2015,04,18,08,14,6.80
2015,04,18,08,15,6.90
2015,04,18,08,16,6.90
2015,04,18,08,17,7.00
2015,04,18,08,18,7.10
2015,04,18,08,19,7.10
2015,04,18,08,20,7.20
2015,04,18,08,21,7.30
2015,04,18,08,22,7.30
2015,04,18,08,23,7.40
2015,04,18,08,24,7.50
2015,04,18,08,25,7.60
2015,04,18,08,26,7.60
2015,04,18,08,27,7.70
2015,04,18,08,28,7.80
2015,04,18,08,29,7.90
2015,04,18,08,30,8.00
2015,04,18,08,31,8.10
2015,04,18,08,32,8.20
2015,04,18,08,33,8.30
2015,04,18,08,34,8.30
2015,04,18,08,35,8.40
2015,04,18,08,36,8.40
2015,04,18,08,37,8.50
2015,04,18,08,38,8.50
2015,04,18,08,39,8.60
2015,04,18,08,40,8.70
2015,04,18,08,41,8.70
2015,04,18,08,42,8.80
2015,04,18,08,43,8.90
2015,04,18,08,44,9.00
2015,04,18,08,45,9.10
2015,04,18,08,46,9.10
2015,04,18,08,47,9.20
2015,04,18,08,48,9.30
2015,04,18,08,49,9.40
2015,04,18,08,50,9.50
2015,04,18,08,51,9.60
2015,04,18,08,52,9.70
2015,04,18,08,53,9.80
2015,04,18,08,54,9.90
2015,04,18,08,55,10.00
2015,04,18,08,56,10.00
2015,04,18,08,57,10.10
2015,04,18,08,58,10.20
2015,04,18,08,59,10.30
2015,04,18,09,00,10.30
2015,04,18,09,01,10.40
2015,04,18,09,02,10.40
2015,04,18,09,03,10.40
2015,04,18,09,04,10.50
2015,04,18,09,05,10.60
2015,04,18,09,06,10.60
2015,04,18,09,07,10.60
2015,04,18,09,08,10.70
2015,04,18,09,09,10.80
2015,04,18,09,10,10.90
2015,04,18,09,11,11.00
2015,04,18,09,12,11.00
2015,04,18,09,13,11.10
2015,04,18,09,14,11.20
2015,04,18,09,15,11.20
2015,04,18,09,16,11.30
2015,04,18,09,17,11.30
2015,04,18,09,18,11.40
2015,04,18,09,19,11.50
2015,04,18,09,20,11.50
2015,04,18,09,21,11.60
2015,04,18,09,22,11.70
2015,04,18,09,23,11.80
2015,04,18,09,24,11.80
2015,04,18,09,25,11.90
2015,04,18,09,26,12.00
2015,04,18,09,27,12.00
2015,04,18,09,28,12.10
2015,04,18,09,29,12.10
2015,04,18,09,30,12.10
2015,04,18,09,31,12.20
2015,04,18,09,32,12.20
2015,04,18,09,33,12.20
2015,04,18,09,34,12.30
2015,04,18,09,35,12.30
2015,04,18,09,36,12.40
2015,04,18,09,37,12.40
2015,04,18,09,38,12.40
2015,04,18,09,39,12.50
2015,04,18,09,40,12.50
2015,04,18,09,41,12.60
2015,04,18,09,42,12.60
2015,04,18,09,43,12.60
2015,04,18,09,44,12.70
2015,04,18,09,45,12.70
2015,04,18,09,46,12.80
2015,04,18,09,47,12.80
2015,04,18,09,48,12.90
2015,04,18,09,49,12.90
2015,04,18,09,50,13.00
2015,04,18,09,51,13.10
2015,04,18,09,52,13.10
2015,04,18,09,53,13.10
2015,04,18,09,54,13.20
2015,04,18,09,55,13.20
2015,04,18,09,56,13.20
2015,04,18,09,57,13.20
2015,04,18,09,58,13.20
2015,04,18,09,59,13.20
2015,04,18,10,00,13.20
2015,04,18,10,01,13.20
2015,04,18,10,02,13.30
2015,04,18,10,03,13.40
2015,04,18,10,04,13.40
2015,04,18,10,05,13.50
2015,04,18,10,06,13.50
2015,04,18,10,07,13.60
2015,04,18,10,08,13.60
2015,04,18,10,09,13.50
2015,04,18,10,10,13.50
2015,04,18,10,11,13.50
2015,04,18,10,12,13.60
2015,04,18,10,13,13.60
2015,04,18,10,14,13.70
2015,04,18,10,15,13.80
2015,04,18,10,16,13.80
2015,04,18,10,17,13.80
2015,04,18,10,18,13.80
2015,04,18,10,19,13.80
2015,04,18,10,20,13.80
2015,04,18,10,21,13.80
2015,04,18,10,22,13.90
2015,04,18,10,23,13.90
2015,04,18,10,24,14.00
2015,04,18,10,25,14.10
2015,04,18,10,26,14.10
2015,04,18,10,27,14.10
2015,04,18,10,28,14.10
2015,04,18,10,29,14.10
2015,04,18,10,30,14.10
2015,04,18,10,31,14.20
2015,04,18,10,32,14.20
2015,04,18,10,33,14.10
2015,04,18,10,34,14.10
2015,04,18,10,35,14.00
2015,04,18,10,36,14.00
2015,04,18,10,37,14.00
2015,04,18,10,38,14.00
2015,04,18,10,39,14.00
2015,04,18,10,40,14.00
2015,04,18,10,41,14.00
2015,04,18,10,42,14.00
2015,04,18,10,43,14.00
2015,04,18,10,44,14.00
2015,04,18,10,45,14.10
2015,04,18,10,46,14.10
2015,04,18,10,47,14.20
2015,04,18,10,48,14.20
2015,04,18,10,49,14.20
2015,04,18,10,50,14.20
2015,04,18,10,51,14.20
2015,04,18,10,52,14.20
2015,04,18,10,53,14.10
2015,04,18,10,54,14.10
2015,04,18,10,55,14.10
2015,04,18,10,56,14.20
2015,04,18,10,57,14.20
2015,04,18,10,58,14.20
2015,04,18,10,59,14.10
2015,04,18,11,00,14.00
2015,04,18,11,01,14.00
2015,04,18,11,02,13.90
2015,04,18,11,03,14.00
2015,04,18,11,04,14.00
2015,04,18,11,05,14.10
2015,04,18,11,06,14.20
2015,04,18,11,07,14.20
2015,04,18,11,08,14.10
2015,04,18,11,09,13.90
2015,04,18,11,10,13.80
2015,04,18,11,11,13.70
2015,04,18,11,12,13.70
2015,04,18,11,13,13.70
2015,04,18,11,14,13.70
2015,04,18,11,15,13.70
2015,04,18,11,16,13.70
2015,04,18,11,17,13.70
2015,04,18,11,18,13.60
2015,04,18,11,19,13.60
2015,04,18,11,20,13.50
2015,04,18,11,21,13.40
2015,04,18,11,22,13.40
2015,04,18,11,23,13.40
2015,04,18,11,24,13.40
2015,04,18,11,25,13.40
2015,04,18,11,26,13.30
2015,04,18,11,27,13.30
2015,04,18,11,28,13.30
2015,04,18,11,29,13.20
2015,04,18,11,30,13.20
2015,04,18,11,31,13.20
2015,04,18,11,32,13.20
2015,04,18,11,33,13.20
2015,04,18,11,34,13.20
2015,04,18,11,35,13.30
2015,04,18,11,36,13.30
2015,04,18,11,37,13.30
2015,04,18,11,38,13.30
2015,04,18,11,39,13.30
2015,04,18,11,40,13.30
2015,04,18,11,41,13.20
2015,04,18,11,42,13.20
2015,04,18,11,43,13.20
2015,04,18,11,44,13.30
2015,04,18,11,45,13.30
2015,04,18,11,46,13.40
2015,04,18,11,47,13.40
2015,04,18,11,48,13.40
2015,04,18,11,49,13.50
2015,04,18,11,50,13.50
2015,04,18,11,51,13.40
2015,04,18,11,52,13.40
2015,04,18,11,53,13.40
2015,04,18,11,54,13.50
2015,04,18,11,55,13.60
2015,04,18,11,56,13.70
2015,04,18,11,57,13.80
2015,04,18,11,58,14.00
2015,04,18,11,59,14.10
2015,04,18,12,00,14.20
2015,04,18,12,01,14.20
2015,04,18,12,02,14.20
2015,04,18,12,03,14.30
2015,04,18,12,04,14.30
2015,04,18,12,05,14.40
2015,04,18,12,06,14.50
2015,04,18,12,07,14.60
2015,04,18,12,08,14.70
2015,04,18,12,09,14.80
2015,04,18,12,10,14.90
2015,04,18,12,11,15.10
2015,04,18,12,12,15.20
2015,04,18,12,13,15.20
2015,04,18,12,14,15.20
2015,04,18,12,15,15.10
2015,04,18,12,16,15.10
2015,04,18,12,17,15.00
2015,04,18,12,18,15.00
2015,04,18,12,19,15.10
2015,04,18,12,20,15.20
2015,04,18,12,21,15.20
2015,04,18,12,22,15.20
2015,04,18,12,23,15.10
2015,04,18,12,24,15.10
2015,04,18,12,25,15.10
2015,04,18,12,26,15.10
2015,04,18,12,27,15.10
2015,04,18,12,28,15.10
2015,04,18,12,29,15.10
2015,04,18,12,30,15.20
2015,04,18,12,31,15.30
2015,04,18,12,32,15.30
2015,04,18,12,33,15.40
2015,04,18,12,34,15.40
2015,04,18,12,35,15.50
2015,04,18,12,36,15.60
2015,04,18,12,37,15.60
2015,04,18,12,38,15.60
2015,04,18,12,39,15.70
2015,04,18,12,40,15.70
2015,04,18,12,41,15.80
2015,04,18,12,42,15.80
2015,04,18,12,43,15.80
2015,04,18,12,44,15.80
2015,04,18,12,45,15.70
2015,04,18,12,46,15.70
2015,04,18,12,47,15.70
2015,04,18,12,48,15.70
2015,04,18,12,49,15.70
2015,04,18,12,50,15.70
2015,04,18,12,51,15.70
2015,04,18,12,52,15.70
2015,04,18,12,53,15.80
2015,04,18,12,54,15.80
2015,04,18,12,55,15.80
2015,04,18,12,56,15.90
2015,04,18,12,57,16.00
2015,04,18,12,58,16.00
2015,04,18,12,59,16.10
2015,04,18,13,00,16.10
2015,04,18,13,01,16.00
2015,04,18,13,02,15.90
2015,04,18,13,03,15.80
2015,04,18,13,04,15.80
2015,04,18,13,05,15.80
2015,04,18,13,06,15.80
2015,04,18,13,07,15.80
2015,04,18,13,08,15.70
2015,04,18,13,09,15.60
2015,04,18,13,10,15.60
2015,04,18,13,11,15.60
2015,04,18,13,12,15.50
2015,04,18,13,13,15.50
2015,04,18,13,14,15.50
2015,04,18,13,15,15.60
2015,04,18,13,16,15.60
2015,04,18,13,17,15.70
2015,04,18,13,18,15.70
2015,04,18,13,19,15.70
2015,04,18,13,20,15.70
2015,04,18,13,21,15.70
2015,04,18,13,22,15.70
2015,04,18,13,23,15.70
2015,04,18,13,24,15.70
2015,04,18,13,25,15.70
2015,04,18,13,26,15.70
2015,04,18,13,27,15.70
2015,04,18,13,28,15.70
2015,04,18,13,29,15.80
2015,04,18,13,30,15.90
2015,04,18,13,31,15.90
2015,04,18,13,32,16.00
2015,04,18,13,33,16.10
2015,04,18,13,34,16.10
2015,04,18,13,35,16.20
2015,04,18,13,36,16.20
2015,04,18,13,37,16.30
2015,04,18,13,38,16.30
2015,04,18,13,39,16.30
2015,04,18,13,40,16.20
2015,04,18,13,41,16.10
2015,04,18,13,42,16.10
2015,04,18,13,43,16.10
2015,04,18,13,44,16.10
2015,04,18,13,45,16.10
2015,04,18,13,46,16.10
2015,04,18,13,47,16.00
2015,04,18,13,48,15.90
2015,04,18,13,49,15.90
2015,04,18,13,50,15.90
2015,04,18,13,51,15.90
2015,04,18,13,52,15.90
2015,04,18,13,53,15.90
2015,04,18,13,54,15.90
2015,04,18,13,55,15.90
2015,04,18,13,56,15.80
2015,04,18,13,57,15.80
2015,04,18,13,58,15.90
2015,04,18,13,59,15.90
2015,04,18,14,00,16.00
2015,04,18,14,01,16.10
2015,04,18,14,02,16.10
2015,04,18,14,03,16.00
2015,04,18,14,04,16.00
2015,04,18,14,05,15.90
2015,04,18,14,06,15.90
2015,04,18,14,07,15.80
2015,04,18,14,08,15.70
2015,04,18,14,09,15.70
2015,04,18,14,10,15.70
2015,04,18,14,11,15.70
2015,04,18,14,12,15.80
2015,04,18,14,13,15.80
2015,04,18,14,14,15.80
2015,04,18,14,15,15.80
2015,04,18,14,16,15.80
2015,04,18,14,17,15.90
2015,04,18,14,18,15.90
2015,04,18,14,19,16.00
2015,04,18,14,20,16.10
2015,04,18,14,21,16.10
2015,04,18,14,22,16.20
2015,04,18,14,23,16.20
2015,04,18,14,24,16.20
2015,04,18,14,25,16.20
2015,04,18,14,26,16.20
2015,04,18,14,27,16.20
2015,04,18,14,28,16.30
2015,04,18,14,29,16.30
2015,04,18,14,30,16.20
2015,04,18,14,31,16.20
2015,04,18,14,32,16.20
2015,04,18,14,33,16.20
2015,04,18,14,34,16.20
2015,04,18,14,35,16.30
2015,04,18,14,36,16.30
2015,04,18,14,37,16.30
2015,04,18,14,38,16.30
2015,04,18,14,39,16.40
2015,04,18,14,40,16.40
2015,04,18,14,41,16.40
2015,04,18,14,42,16.50
2015,04,18,14,43,16.50
2015,04,18,14,44,16.60
2015,04,18,14,45,16.50
2015,04,18,14,46,16.40
2015,04,18,14,47,16.40
2015,04,18,14,48,16.40
2015,04,18,14,49,16.40
2015,04,18,14,50,16.40
2015,04,18,14,51,16.50
2015,04,18,14,52,16.40
2015,04,18,14,53,16.40
2015,04,18,14,54,16.30
2015,04,18,14,55,16.30
2015,04,18,14,56,16.30
2015,04,18,14,57,16.30
2015,04,18,14,58,16.30
2015,04,18,14,59,16.20
2015,04,18,15,00,16.20
2015,04,18,15,01,16.30
2015,04,18,15,02,16.30
2015,04,18,15,03,16.30
2015,04,18,15,04,16.30
2015,04,18,15,05,16.40
2015,04,18,15,06,16.40
2015,04,18,15,07,16.40
2015,04,18,15,08,16.50
2015,04,18,15,09,16.50
2015,04,18,15,10,16.40
2015,04,18,15,11,16.40
2015,04,18,15,12,16.40
2015,04,18,15,13,16.40
2015,04,18,15,14,16.40
2015,04,18,15,15,16.40
2015,04,18,15,16,16.30
2015,04,18,15,17,16.30
2015,04,18,15,18,16.30
2015,04,18,15,19,16.30
2015,04,18,15,20,16.30
2015,04,18,15,21,16.20
2015,04,18,15,22,16.30
2015,04,18,15,23,16.30
2015,04,18,15,24,16.30
2015,04,18,15,25,16.30
2015,04,18,15,26,16.30
2015,04,18,15,27,16.30
2015,04,18,15,28,16.30
2015,04,18,15,29,16.30
2015,04,18,15,30,16.40
2015,04,18,15,31,16.50
2015,04,18,15,32,16.70
2015,04,18,15,33,16.80
2015,04,18,15,34,16.90
2015,04,18,15,35,17.00
2015,04,18,15,36,17.00
2015,04,18,15,37,17.10
2015,04,18,15,38,17.10
2015,04,18,15,39,17.00
2015,04,18,15,40,16.90
2015,04,18,15,41,16.80
2015,04,18,15,42,16.70
2015,04,18,15,43,16.60
2015,04,18,15,44,16.50
2015,04,18,15,45,16.50
2015,04,18,15,46,16.40
2015,04,18,15,47,16.40
2015,04,18,15,48,16.30
2015,04,18,15,49,16.30
2015,04,18,15,50,16.30
2015,04,18,15,51,16.30
2015,04,18,15,52,16.30
2015,04,18,15,53,16.30
2015,04,18,15,54,16.30
2015,04,18,15,55,16.30
2015,04,18,15,56,16.30
2015,04,18,15,57,16.20
2015,04,18,15,58,16.10
2015,04,18,15,59,16.10
2015,04,18,16,00,16.00
2015,04,18,16,01,16.00
2015,04,18,16,02,16.00
2015,04,18,16,03,16.10
2015,04,18,16,04,16.10
2015,04,18,16,05,16.20
2015,04,18,16,06,16.30
2015,04,18,16,07,16.30
2015,04,18,16,08,16.30
2015,04,18,16,09,16.40
2015,04,18,16,10,16.40
2015,04,18,16,11,16.40
2015,04,18,16,12,16.40
2015,04,18,16,13,16.40
2015,04,18,16,14,16.40
2015,04,18,16,15,16.40
2015,04,18,16,16,16.50
2015,04,18,16,17,16.60
2015,04,18,16,18,16.70
2015,04,18,16,19,16.80
2015,04,18,16,20,16.90
2015,04,18,16,21,16.90
2015,04,18,16,22,16.90
2015,04,18,16,23,16.90
2015,04,18,16,24,16.80
2015,04,18,16,25,16.80
2015,04,18,16,26,16.80
2015,04,18,16,27,16.80
2015,04,18,16,28,16.80
2015,04,18,16,29,16.80
2015,04,18,16,30,16.90
2015,04,18,16,31,17.00
2015,04,18,16,32,17.10
2015,04,18,16,33,17.10
2015,04,18,16,34,17.00
2015,04,18,16,35,17.00
2015,04,18,16,36,16.90
2015,04,18,16,37,16.80
2015,04,18,16,38,16.70
2015,04,18,16,39,16.60
2015,04,18,16,40,16.60
2015,04,18,16,41,16.50
2015,04,18,16,42,16.50
2015,04,18,16,43,16.40
2015,04,18,16,44,16.40
2015,04,18,16,45,16.40
2015,04,18,16,46,16.50
2015,04,18,16,47,16.50
2015,04,18,16,48,16.50
2015,04,18,16,49,16.50
2015,04,18,16,50,16.50
2015,04,18,16,51,16.40
2015,04,18,16,52,16.40
2015,04,18,16,53,16.40
2015,04,18,16,54,16.40
2015,04,18,16,55,16.40
2015,04,18,16,56,16.40
2015,04,18,16,57,16.50
2015,04,18,16,58,16.50
2015,04,18,16,59,16.50
2015,04,18,17,00,16.60
2015,04,18,17,01,16.60
2015,04,18,17,02,16.60
2015,04,18,17,03,16.60
2015,04,18,17,04,16.60
2015,04,18,17,05,16.60
2015,04,18,17,06,16.50
2015,04,18,17,07,16.50
2015,04,18,17,08,16.50
2015,04,18,17,09,16.40
2015,04,18,17,10,16.40
2015,04,18,17,11,16.40
2015,04,18,17,12,16.30
2015,04,18,17,13,16.30
2015,04,18,17,14,16.30
2015,04,18,17,15,16.30
2015,04,18,17,16,16.30
2015,04,18,17,17,16.30
2015,04,18,17,18,16.40
2015,04,18,17,19,16.50
2015,04,18,17,20,16.50
2015,04,18,17,21,16.50
2015,04,18,17,22,16.60
2015,04,18,17,23,16.60
2015,04,18,17,24,16.60
2015,04,18,17,25,16.50
2015,04,18,17,26,16.50
2015,04,18,17,27,16.40
2015,04,18,17,28,16.40
2015,04,18,17,29,16.40
2015,04,18,17,30,16.30
2015,04,18,17,31,16.30
2015,04,18,17,32,16.30
2015,04,18,17,33,16.20
2015,04,18,17,34,16.20
2015,04,18,17,35,16.20
2015,04,18,17,36,16.20
2015,04,18,17,37,16.20
2015,04,18,17,38,16.20
2015,04,18,17,39,16.20
2015,04,18,17,40,16.20
2015,04,18,17,41,16.20
2015,04,18,17,42,16.30